DW8454 Weather Reports


Display with metric or nautical units.
time (UTC)temp
F
wind
direction
speed
MPH
gust
MPH
rain 1hr
in
rain 24hr
in
rain mn
in
humidity
%
barometer
mb
20260831003129 70 100 0.0 0.0 0.00 0.00 0.00 96 1017.5
20260831001048 70 100 0.0 0.0 0.00 0.00 0.00 95 1017.5
20260831000030 71 100 0.0 0.0 0.00 0.00 0.00 95 1017.5
20260830235021 71 100 0.0 0.0 0.00 0.00 0.00 95 1017.4
20260830234009 71 86 0.0 0.0 0.00 0.00 0.00 96 1017.4
20260830233013 71 100 0.0 0.0 0.00 0.00 0.00 95 1017.4
20260830230833 71 100 0.0 0.0 0.00 0.00 0.00 94 1017.1
20260830225839 72 100 0.0 0.0 0.00 0.00 0.00 95 1016.9
20260830224855 72 100 0.0 0.0 0.00 0.00 0.00 94 1016.6
20260830223828 73 100 0.0 0.0 0.00 0.00 0.00 90 1016.5
20260830222803 73 100 0.0 0.0 0.00 0.00 0.00 87 1016.3
20260830220618 75 100 0.0 0.0 0.00 0.00 0.00 82 1015.9
20260830215623 75 225 0.0 0.0 0.00 0.00 0.00 81 1015.8
20260830214553 75 221 1.0 5.0 0.00 0.00 0.00 80 1015.9
20260830213527 76 210 0.0 0.0 0.00 0.00 0.00 81 1015.6
20260830212547 76 179 1.0 6.0 0.00 0.00 0.00 79 1015.9
20260830211544 76 211 1.0 6.0 0.00 0.00 0.00 79 1015.5
20260830205416 75 229 1.0 4.0 0.00 0.00 0.00 81 1016.4
20260830204425 75 219 0.0 2.0 0.00 0.00 0.00 83 1016.5
20260830203412 75 209 0.0 1.0 0.00 0.00 0.00 83 1016.4
20260830202353 74 197 1.0 6.0 0.00 0.00 0.00 83 1016.6
20260830201357 74 200 1.0 4.0 0.00 0.00 0.00 82 1016.6
20260830200408 74 233 1.0 5.0 0.00 0.00 0.00 84 1016.5
20260830195351 74 169 1.0 5.0 0.00 0.00 0.00 84 1016.5
20260830194340 74 227 2.0 6.0 0.00 0.00 0.00 84 1016.7
20260830193342 73 211 2.0 6.0 0.00 0.00 0.00 85 1016.8
20260830192326 73 207 0.0 4.0 0.00 0.00 0.00 84 1017.1
20260830191339 73 142 0.0 0.0 0.00 0.00 0.00 85 1017.3
20260830190309 73 165 0.0 4.0 0.00 0.00 0.00 85 1017.4
20260830185321 73 220 0.0 2.0 0.00 0.00 0.00 87 1017.5
20260830184310 73 223 0.0 3.0 0.00 0.00 0.00 87 1017.8
20260830183243 73 223 0.0 2.0 0.00 0.00 0.00 87 1018.1
20260830182248 73 223 0.0 3.0 0.00 0.00 0.00 86 1018.2
20260830181305 73 246 0.0 0.0 0.00 0.00 0.00 83 1018.5
20260830180236 73 285 0.0 1.0 0.00 0.00 0.00 83 1018.7
20260830175209 74 288 0.0 2.0 0.00 0.00 0.00 84 1018.7
20260830174222 74 279 0.0 0.0 0.00 0.00 0.00 82 1018.8
20260830172110 75 306 0.0 2.0 0.00 0.00 0.00 85 1018.8
20260830171054 73 288 0.0 2.0 0.00 0.00 0.00 84 1018.9
20260830164832 72 277 0.0 2.0 0.00 0.00 0.00 86 1019.4
20260830163818 73 300 0.0 1.0 0.00 0.00 0.00 85 1019.4
20260830162750 72 333 1.0 4.0 0.00 0.00 0.00 86 1019.6
20260830161738 73 281 2.0 4.0 0.00 0.00 0.00 83 1019.6
20260830160746 74 250 1.0 3.0 0.00 0.00 0.00 83 1019.6
20260830155755 74 238 0.0 3.0 0.00 0.00 0.00 83 1019.6
20260830154742 73 242 0.0 2.0 0.00 0.00 0.00 86 1019.5
20260830153804 72 247 0.0 2.0 0.00 0.00 0.00 85 1019.5
20260830152804 72 230 0.0 2.0 0.00 0.00 0.00 84 1019.5
20260830151811 72 261 0.0 1.0 0.00 0.00 0.00 83 1019.4
20260830150753 71 355 0.0 0.0 0.00 0.00 0.00 86 1019.2
20260830145741 71 355 0.0 0.0 0.00 0.00 0.00 84 1019.1
20260830144756 71 355 0.0 0.0 0.00 0.00 0.00 85 1019.0
20260830143736 71 355 0.0 0.0 0.00 0.00 0.00 85 1018.8
20260830142749 71 32 0.0 1.0 0.00 0.00 0.00 84 1018.9
20260830140708 70 269 0.0 2.0 0.00 0.00 0.00 83 1018.7
20260830135642 70 288 0.0 1.0 0.00 0.00 0.00 83 1018.5
20260830134658 71 265 0.0 2.0 0.00 0.00 0.00 80 1018.4
20260830133721 70 252 0.0 0.0 0.00 0.00 0.00 83 1018.2
20260830132704 71 227 0.0 3.0 0.00 0.00 0.00 80 1017.8
20260830131633 71 234 0.0 5.0 0.00 0.00 0.00 79 1017.6
20260830130657 71 236 0.0 5.0 0.00 0.00 0.00 78 1017.6
20260830125721 71 213 0.0 4.0 0.00 0.00 0.00 79 1017.6
20260830123551 70 221 1.0 3.0 0.00 0.00 0.00 79 1017.7
20260830122529 70 198 0.0 4.0 0.00 0.00 0.00 79 1017.8
20260830121531 70 219 1.0 4.0 0.00 0.00 0.00 79 1017.7
20260830120527 69 224 1.0 3.0 0.00 0.00 0.00 80 1017.7
20260830115513 69 169 1.0 4.0 0.00 0.00 0.00 80 1017.5
20260830114500 69 216 1.0 4.0 0.00 0.00 0.00 80 1017.6
20260830113525 69 234 0.0 3.0 0.00 0.00 0.00 80 1017.7
20260830112546 69 223 1.0 3.0 0.00 0.00 0.00 80 1017.6
20260830111601 69 210 0.0 2.0 0.00 0.00 0.00 80 1017.5
20260830110604 68 210 1.0 3.0 0.00 0.00 0.00 80 1017.7
20260830105600 69 195 1.0 3.0 0.00 0.00 0.00 79 1017.7
20260830104620 68 221 0.0 3.0 0.00 0.00 0.00 79 1017.7
20260830102525 69 199 1.0 3.0 0.00 0.00 0.00 79 1017.8
20260830101500 69 221 1.0 2.0 0.00 0.00 0.00 79 1017.7
20260830100457 68 215 1.0 3.0 0.00 0.00 0.00 79 1017.9
20260830095502 68 218 0.0 3.0 0.00 0.00 0.00 80 1017.8
20260830094452 68 219 0.0 3.0 0.00 0.00 0.00 80 1017.8
20260830093433 68 212 1.0 3.0 0.00 0.00 0.00 80 1018.0
20260830091301 68 219 0.0 2.0 0.00 0.00 0.00 81 1018.0
20260830090322 68 222 0.0 0.0 0.00 0.00 0.00 82 1018.1
20260830085314 67 222 0.0 0.0 0.00 0.00 0.00 82 1018.2
20260830084322 68 222 0.0 4.0 0.00 0.00 0.00 81 1018.0
20260830081018 67 253 1.0 3.0 0.00 0.00 0.00 82 1017.9
20260830080032 67 192 1.0 3.0 0.00 0.00 0.00 82 1017.9
20260830075037 67 213 1.0 3.0 0.00 0.00 0.00 83 1018.0
20260830074014 67 224 0.0 3.0 0.00 0.00 0.00 83 1018.1
20260830072943 67 213 0.0 2.0 0.00 0.00 0.00 84 1018.0
20260830065656 67 215 0.0 0.0 0.00 0.00 0.00 84 1018.3
20260830064654 67 215 0.0 0.0 0.00 0.00 0.00 83 1018.4
20260830062506 67 224 0.0 1.0 0.00 0.00 0.00 83 1018.4
20260830061511 66 224 0.0 0.0 0.00 0.00 0.00 86 1018.5
20260830055258 66 224 0.0 0.0 0.00 0.00 0.00 85 1018.6
20260830051034 67 206 0.0 0.0 0.00 0.00 0.00 85 1018.7
20260830050006 66 224 0.0 0.0 0.00 0.00 0.00 86 1018.6
20260830044954 67 224 0.0 0.0 0.00 0.00 0.00 84 1018.6
20260830042833 68 224 0.0 1.0 0.00 0.00 0.00 85 1018.5
20260830035600 67 205 0.0 1.0 0.00 0.00 0.00 85 1018.3
20260830034526 66 119 0.0 0.0 0.00 0.00 0.00 88 1018.2
20260830033511 66 119 0.0 0.0 0.00 0.00 0.00 88 1018.2
20260830031314 67 119 0.0 0.0 0.00 0.00 0.00 88 1018.4
20260830025158 67 119 0.0 0.0 0.00 0.00 0.00 90 1018.3
20260830024143 66 119 0.0 0.0 0.00 0.00 0.00 91 1018.4
20260830023153 67 119 0.0 0.0 0.00 0.00 0.00 87 1018.4
20260830022206 66 119 0.0 0.0 0.00 0.00 0.00 87 1018.5
20260830021139 67 119 0.0 0.0 0.00 0.00 0.00 87 1018.5
20260830015110 66 119 0.0 0.0 0.00 0.00 0.00 88 1018.3
20260830014112 66 119 0.0 0.0 0.00 0.00 0.00 87 1018.3
20260830013055 66 119 0.0 0.0 0.00 0.00 0.00 89 1018.3
20260830012102 67 119 0.0 0.0 0.00 0.00 0.00 87 1018.4